User: anonymous   Login
Location: Caltech
(34.1382°N, 118.1253°W)
Time: 16:23:19
(UTC-07:00)
Language:

Aureole 3 Rocket - Orbit

View from above orbital plane
View from above orbital plane
View from above satellite
View from above satellite

Ground track
Ground track

The orbit data is extracted from the following two-line orbital elements,

1 12849U 81094B   17293.50518975  .00000325  00000-0  25638-4 0  9996
2 12849  82.4924  70.5750 0903972  78.0886 292.0053 13.50246205758847
Epoch (UTC): 20 October 2017 12:07:28
Eccentricity: 0.0903972
inclination: 82.4924°
perigee height: 398 km
apogee height: 1745 km
right ascension of ascending node: 70.5750°
argument of perigee: 78.0886°
revolutions per day: 13.50246205
mean anomaly at epoch: 292.0053°
orbit number at epoch: 75884

The dashed part of the orbit path shows where the satellite is in the earth's shadow,  

DLR